Location: Unspecified
(0.0000°N, 0.0000°E)
Time: 20:49:30
(UTC+00:00)

Vanguard 2 Rocket - Visible Passes

Search period start: 14 July 2020 00:00
Search period end: 24 July 2020 00:00
Orbit: 556 x 3325 km, 32.9° (Epoch: 14 July)

Date Brightness Start Highest point End Pass type
(mag) Time Alt. Az. Time Alt. Az. Time Alt. Az.
14 Jul 10.2 00:35:50 36° NNW 00:35:50 36° NNW 00:52:13 10° NNE visible
14 Jul 10.8 02:47:14 10° NW 02:57:47 17° NNW 03:06:46 10° NNE visible
14 Jul 10.7 05:15:21 10° NNW 05:19:58 12° N 05:23:54 10° NNE visible
14 Jul 9.3 18:47:46 10° SSW 18:56:53 30° SE 19:09:38 12° E visible
14 Jul 9.0 20:59:35 10° SW 21:13:17 84° SE 21:33:39 10° NE visible
14 Jul 10.1 23:15:59 10° W 23:37:04 42° N 23:51:17 10° NE visible
15 Jul 10.7 01:42:36 13° WNW 01:54:21 21° NNW 02:06:35 10° NNE visible
15 Jul 10.8 04:11:01 10° NNW 04:17:30 13° N 04:22:59 10° NNE visible
15 Jul 8.9 20:00:05 10° SW 20:11:48 63° SE 20:23:37 27° ENE visible
15 Jul 9.6 22:14:30 10° WSW 22:29:45 58° NNW 22:49:46 10° NE visible
16 Jul 10.5 00:35:35 10° WNW 00:50:52 27° NNW 01:05:56 10° NNE visible
16 Jul 10.9 03:05:12 10° NW 03:14:22 15° N 03:22:10 10° NNE visible
16 Jul 10.5 05:28:08 10° NNW 05:36:01 17° NNE 05:41:55 10° NE visible
16 Jul 9.0 19:01:10 10° SSW 19:10:54 44° SE 19:26:42 10° ENE visible
16 Jul 9.2 21:13:56 10° WSW 21:27:30 74° NW 21:47:44 10° NE visible
16 Jul 10.3 23:32:03 10° W 23:47:34 35° NNW 00:04:53 10° NNE visible
17 Jul 10.9 01:58:55 10° NW 02:10:45 18° NNW 02:21:14 10° NNE visible
17 Jul 10.7 04:25:20 10° NNW 04:33:54 16° N 04:40:38 10° NE visible
17 Jul 8.8 20:14:06 10° SW 20:25:50 86° SE 20:45:06 10° NE visible
17 Jul 10.0 22:29:51 10° W 22:44:34 44° NNW 23:03:23 10° NE visible
18 Jul 10.8 00:53:16 10° WNW 01:06:55 22° NNW 01:20:06 10° NNE visible
18 Jul 10.8 03:21:23 10° NNW 03:31:03 16° N 03:38:59 10° NE visible
18 Jul 10.2 05:41:07 10° NNW 05:51:42 25° NNE 05:58:45 10° ENE visible
18 Jul 8.7 19:14:53 10° SW 19:24:48 64° SE 19:41:54 10° ENE visible
18 Jul 9.6 21:28:46 10° WSW 21:42:04 55° NNW 22:01:27 10° NE visible
18 Jul 10.6 23:48:55 10° WNW 00:03:14 27° NNW 00:18:42 10° NNE visible
19 Jul 10.9 02:16:26 10° NW 02:27:30 17° N 02:37:08 10° NNE visible
19 Jul 10.5 04:38:51 10° NNW 04:49:59 22° NNE 04:57:54 10° ENE visible
19 Jul 8.7 18:16:14 10° SSW 18:24:24 42° SE 18:38:07 10° ENE visible
19 Jul 9.1 20:28:31 10° WSW 20:40:08 70° NNW 20:59:07 10° NE visible
19 Jul 10.3 22:45:57 10° W 22:59:53 33° NNW 23:17:00 10° NNE visible
20 Jul 10.9 01:11:11 10° NW 01:23:32 19° N 01:35:09 10° NNE visible
20 Jul 10.7 03:35:57 10° NNW 03:47:30 20° N 03:56:22 10° NE visible
20 Jul 8.6 19:28:57 10° SW 19:38:52 89° SE 19:56:22 10° NE visible
20 Jul 10.0 21:44:12 10° W 21:57:03 40° NNW 22:15:01 10° NE visible
21 Jul 10.8 00:06:28 10° WNW 00:19:29 21° NNW 00:33:03 10° NNE visible
21 Jul 10.9 02:32:23 10° NNW 02:44:16 18° N 02:54:10 10° NE visible
21 Jul 10.1 04:52:10 10° NW 05:05:38 31° NNE 05:14:22 10° E visible
21 Jul 8.4 18:29:56 10° SW 18:38:17 64° SE 18:53:16 10° ENE visible
21 Jul 9.5 20:43:26 10° WSW 20:54:49 50° NNW 21:12:47 10° NE visible
21 Jul 10.6 23:02:49 10° WNW 23:15:44 25° NNW 23:30:53 10° NNE visible
22 Jul 10.9 01:28:17 10° NW 01:40:24 18° N 01:51:26 10° NE visible
22 Jul 10.5 03:49:43 10° NNW 04:03:32 26° NNE 04:13:22 10° ENE visible
22 Jul 9.0 19:43:27 10° WSW 19:53:16 65° NNW 20:10:20 10° NE visible
22 Jul 10.4 22:00:22 10° WNW 22:12:31 30° NNW 22:28:37 10° NNE visible
23 Jul 10.9 00:24:03 10° NW 00:36:13 19° N 00:48:27 10° NE visible
23 Jul 10.7 02:46:58 10° NNW 03:00:42 23° NNE 03:11:30 10° ENE visible
23 Jul 9.6 05:05:32 10° NW 05:20:52 45° NNE 05:30:01 10° E visible
23 Jul 8.4 18:44:03 10° SW 18:52:23 87° NW 19:07:41 10° NE visible
23 Jul 10.0 20:58:58 10° W 21:09:57 36° NNW 21:26:17 10° NE visible
23 Jul 10.8 23:20:15 10° NW 23:32:07 20° N 23:45:25 10° NNE visible
